Location: Newport
(44.6370°N, 124.0520°W)
Time: 03:51:22
(UTC-08:00)

OTV 5 (USA 277) - Pass Details

Date: 08 October 2017
Orbit: 404 x 417 km, 43.0° (Epoch: 07 September)

Event Time Altitude Azimuth Distance (km) Brightness Sun altitude
Rises 19:54:11 0° 204° (SSW) 2,343 ? -13.4°
Reaches altitude 10° 19:57:12 10° 174° (S) 1,484 ? -14.0°
Enters shadow 19:58:29 13° 152° (SSE) 1,338 ? -14.2°
